Theta_e
339 333 329 323 311 309 304 309 311 308 307 309 310 309 310 313 312 308 321 319 325 330 334 339 343 342 339 335 338 337 336 338 338 339 338 338 337 337 342 342 343 344 344 342 342 342 343 344 345
327 324 323 319 303 298 303 310 307 308 308 308 310 309 311 309 319 320 316 320 328 334 338 337 342 339 336 340 339 336 334 336 337 337 337 337 335 336 339 340 340 341 342 340 339 339 340 340 342
328 321 314 309 301 300 304 309 309 308 308 308 309 310 310 312 320 319 317 322 335 337 335 336 340 338 340 340 336 336 337 336 335 337 337 337 336 335 336 336 336 338 338 338 337 336 337 338 339
320 317 310 301 300 307 309 309 312 308 308 310 309 308 314 318 318 319 317 328 333 332 332 338 339 336 339 337 334 332 332 335 336 335 335 335 334 333 333 334 334 334 334 335 334 334 335 337 336
319 312 302 298 303 307 310 313 312 308 308 309 312 308 310 317 322 319 317 327 331 328 327 329 337 336 338 336 334 336 333 332 332 330 329 330 330 330 331 330 332 331 332 331 331 332 331 333 334
313 309 298 297 302 307 310 313 312 309 309 309 310 310 310 318 318 317 317 324 330 329 328 331 339 336 337 333 333 333 331 335 331 329 328 328 328 328 329 329 328 328 329 328 328 328 328 330 331
312 305 300 300 302 306 309 313 309 309 308 307 312 308 311 315 319 318 316 323 325 330 330 333 333 336 338 335 332 335 336 332 328 327 326 325 325 326 326 326 326 325 325 324 325 325 325 326 327
317 310 303 301 301 304 310 312 313 310 308 314 315 308 308 314 318 318 317 318 320 325 332 333 333 332 330 332 335 332 332 327 327 325 323 322 323 324 324 323 321 321 321 320 319 320 320 321 323
322 307 301 303 304 305 311 309 312 313 311 314 314 314 317 318 318 316 315 316 320 325 326 330 327 327 328 330 333 333 330 327 326 324 323 321 317 318 318 322 323 319 318 317 317 317 320 319 320
313 306 305 308 309 307 311 310 310 309 308 307 313 317 319 317 315 314 313 313 318 321 323 326 324 325 327 329 329 327 325 322 321 321 318 316 311 312 315 320 320 320 318 317 318 320 318 317 312
311 304 309 308 308 309 311 307 307 306 303 303 303 314 318 317 316 315 314 314 315 320 321 324 324 325 327 325 325 323 323 321 321 319 316 313 311 308 307 311 311 312 317 314 315 314 312 309 307
303 307 308 310 307 306 305 308 303 303 303 306 307 312 317 316 316 316 315 314 314 318 321 322 323 323 324 325 323 322 321 321 320 319 317 313 310 308 307 308 309 308 309 307 308 308 307 307 307
302 303 306 305 305 305 308 304 303 303 306 307 308 310 311 315 317 318 317 316 314 315 320 321 323 321 322 322 322 322 320 320 320 320 318 314 310 308 309 309 309 308 307 307 307 308 308 307 306
302 304 303 305 304 305 304 303 304 303 306 306 307 305 305 308 312 316 316 315 313 314 318 321 322 323 321 320 321 320 319 320 319 319 318 316 311 308 309 310 310 308 308 308 307 306 307 307 307
304 300 302 302 303 302 305 300 299 303 306 304 304 304 305 306 307 307 309 313 316 315 317 318 320 323 322 321 321 320 320 320 318 318 317 315 313 308 308 310 309 309 309 308 308 307 306 306 308
300 299 294 299 303 301 301 295 301 304 302 302 302 302 303 305 305 306 308 308 309 315 316 318 322 322 321 321 321 321 320 319 318 317 316 317 315 312 310 311 311 312 311 309 308 307 307 307 306
298 292 295 296 300 301 299 296 301 304 302 300 299 300 301 302 304 306 308 308 309 309 316 317 319 319 321 321 321 321 320 320 319 318 317 318 317 315 312 312 313 312 311 309 309 308 307 305 306
293 292 292 293 297 299 298 297 300 302 301 298 298 298 299 300 302 305 308 309 310 310 310 319 319 319 320 321 320 320 319 319 319 319 318 319 318 317 314 313 313 312 310 309 308 307 308 307 307
296 294 293 295 299 297 297 297 298 300 298 297 296 296 297 299 303 306 308 311 310 310 310 319 319 319 319 318 317 317 316 317 318 319 320 319 318 318 315 314 314 313 310 309 308 308 307 307 309
296 293 292 295 298 295 296 295 298 298 296 296 296 295 296 298 300 303 306 310 312 312 315 317 320 320 320 320 320 319 318 319 319 320 320 320 319 319 317 315 314 313 311 310 309 307 306 307 308
295 293 293 293 296 296 295 293 295 297 297 297 297 297 297 298 299 301 302 305 309 312 313 315 318 320 321 321 320 320 319 319 318 318 318 320 320 320 319 317 314 313 312 310 310 309 307 305 308
293 297 296 296 292 287 295 284 293 294 293 294 292 294 295 296 299 300 301 302 304 306 311 315 316 316 319 320 319 317 316 315 318 318 319 320 320 319 320 319 316 314 313 311 311 312 309 308 306
295 299 296 296 291 289 291 286 289 294 291 290 291 293 294 295 297 298 299 301 302 304 304 306 307 309 314 316 316 315 315 316 317 317 316 317 318 319 319 318 316 314 313 312 311 310 309 309 307
300 296 295 293 290 284 290 288 288 291 292 290 291 292 293 294 295 296 298 300 300 301 302 303 303 304 306 307 309 312 313 313 313 313 314 316 317 318 318 318 316 315 314 313 312 312 311 310 309
296 291 285 284 283 284 292 288 288 293 294 292 291 291 292 293 294 294 295 296 297 298 299 301 300 301 302 302 303 304 305 305 304 305 308 308 310 311 311 314 316 316 316 316 315 313 312 312 310
294 291 285 280 281 285 291 284 289 294 294 293 294 293 293 293 293 294 295 296 296 297 297 298 298 299 300 300 301 302 302 302 303 303 304 304 304 305 308 310 313 315 315 315 315 314 314 314 312
292 288 292 287 287 282 287 289 294 293 291 292 293 293 292 293 293 294 295 295 295 296 296 297 297 297 298 299 299 299 299 299 300 300 301 302 302 303 304 306 306 309 312 314 314 313 313 313 313
291 294 286 287 279 278 284 286 286 289 289 292 291 291 292 293 293 294 294 295 295 295 296 296 297 296 297 297 298 298 298 299 299 299 299 300 301 302 301 302 303 304 304 306 309 312 313 312 312
291 289 290 288 286 279 278 281 292 291 292 291 291 292 292 292 293 293 294 294 294 295 294 295 295 295 295 296 296 297 297 298 299 299 299 299 299 300 300 301 301 301 301 302 303 303 307 308 310
292 290 290 283 283 285 283 281 293 294 294 294 292 292 292 293 293 294 294 293 293 293 293 293 293 293 294 295 295 296 296 296 296 297 298 299 298 299 299 300 300 300 301 300 300 301 302 302 303
Wind_Speed
13 11 5 3 2 2 5 5 5 9 8 8 6 9 15 12 6 5 5 6 12 12 10 9 14 13 11 11 13 14 11 12 12 14 15 15 16 14 15 16 17 18 20 18 17 18 19 18 17
7 13 2 4 2 4 2 7 12 10 7 2 7 8 11 7 8 10 7 11 10 13 10 9 16 11 12 13 14 13 11 10 13 14 13 15 14 14 15 16 17 17 19 17 17 17 17 16 16
9 7 1 3 4 4 6 14 10 8 5 5 6 10 7 5 9 6 10 11 15 12 11 10 15 12 12 13 13 12 11 13 12 14 14 13 15 14 13 15 14 16 17 16 16 16 16 15 14
4 2 4 2 5 7 9 9 9 7 4 3 3 10 7 8 3 10 9 11 15 12 12 11 11 11 12 12 12 10 8 11 12 12 13 14 15 13 12 15 13 14 14 14 15 15 14 14 13
3 3 4 5 10 6 10 5 5 8 6 7 13 6 7 5 9 10 9 10 15 10 11 8 12 11 12 10 11 11 10 10 11 10 8 9 11 11 11 11 12 13 13 12 14 12 11 12 12
3 2 4 2 6 6 9 2 3 9 9 9 14 8 5 6 9 8 8 9 13 11 10 8 11 13 12 8 9 9 8 10 10 9 9 10 9 10 11 11 12 11 11 10 11 11 11 10 10
3 2 4 8 6 6 9 8 6 9 11 8 9 7 6 8 8 8 8 9 7 14 11 9 8 10 11 10 9 8 10 9 8 8 7 8 8 8 8 9 9 9 9 8 9 9 9 10 10
3 3 1 5 4 8 4 4 7 9 7 2 11 6 7 8 9 8 8 7 8 8 12 11 9 7 7 7 11 8 6 5 6 7 5 5 6 5 6 8 7 7 7 7 7 7 7 7 7
3 3 5 6 9 5 4 8 5 2 11 14 8 10 10 9 8 7 7 6 6 7 7 11 8 5 7 7 8 8 7 5 6 5 4 4 4 5 7 7 6 5 5 4 4 4 3 1 3
2 4 7 6 8 5 7 9 4 3 13 8 10 10 9 8 7 8 7 7 7 8 6 10 9 7 7 6 5 5 5 5 6 6 7 5 3 5 5 6 4 1 1 1 1 1 4 5 3
6 6 6 10 9 9 5 15 14 10 9 7 7 9 9 7 7 9 8 9 8 7 4 8 9 10 7 6 4 2 3 2 2 3 2 4 3 4 3 3 2 2 5 3 4 5 3 4 1
3 6 6 5 4 7 7 8 11 11 4 7 6 6 10 8 8 8 9 9 9 8 7 4 7 7 8 6 5 5 4 4 3 4 4 2 1 2 1 1 3 1 1 2 2 1 1 3 3
7 5 1 6 1 1 0 8 10 9 6 7 7 8 5 6 7 7 8 9 10 9 8 6 6 5 6 7 4 5 5 3 3 5 4 1 1 2 1 2 2 2 1 2 2 2 2 4 3
4 1 5 1 5 1 7 8 5 8 6 9 10 10 9 10 10 3 3 6 8 9 9 9 7 5 3 4 5 2 3 5 2 4 4 6 3 3 3 2 2 1 2 1 1 2 2 4 3
3 5 7 6 6 5 14 10 7 6 8 9 10 9 9 10 10 10 11 7 8 7 10 9 9 8 4 3 4 3 1 2 2 2 3 3 4 3 2 1 2 2 1 2 2 3 2 3 4
4 5 6 4 7 1 1 6 6 6 8 9 10 9 8 10 9 10 9 9 9 2 10 9 8 9 6 4 3 4 2 2 1 2 3 4 2 2 3 2 2 2 3 1 2 2 2 3 3
7 5 6 5 2 4 7 8 7 8 8 8 9 9 8 9 10 9 9 9 9 9 4 9 9 8 9 5 4 5 4 4 4 3 3 4 4 3 3 2 3 1 2 1 2 2 1 2 4
4 6 4 8 3 2 11 9 7 7 9 9 9 9 9 9 9 8 9 8 7 9 8 9 8 8 7 6 4 4 3 3 3 3 3 4 4 4 2 2 3 1 2 2 2 2 2 2 3
8 7 6 8 3 2 8 8 7 7 8 8 9 9 9 9 9 10 10 10 9 4 8 5 9 8 4 3 3 2 3 3 2 3 3 4 3 5 5 3 3 3 3 3 4 2 2 3 3
5 5 3 6 4 2 8 8 7 8 6 8 8 9 9 10 10 11 13 13 13 13 6 5 5 7 4 4 3 3 2 2 4 4 4 5 5 5 5 5 4 4 2 4 3 2 1 3 2
5 5 5 4 5 6 8 7 8 7 8 8 9 9 9 10 11 12 12 14 15 15 13 10 8 5 4 4 3 4 4 3 3 2 1 3 5 5 5 5 4 4 3 4 3 3 4 2 4
4 6 3 2 3 2 8 0 8 9 8 9 8 8 9 9 10 11 12 13 13 13 14 15 14 13 11 6 4 3 2 3 3 3 1 3 5 4 5 5 5 5 3 4 4 4 4 3 4
3 3 3 3 5 6 7 2 5 10 8 8 7 8 9 9 9 11 12 12 9 9 9 11 13 14 13 11 8 5 6 4 4 4 5 4 4 2 3 4 6 5 4 5 5 5 4 4 3
1 4 5 3 3 4 11 9 7 6 13 8 8 8 9 9 9 10 10 10 9 9 8 8 9 9 10 9 9 8 8 7 7 7 5 5 4 3 2 3 3 4 3 4 4 5 5 5 4
3 4 2 3 2 3 6 3 5 8 10 11 9 8 8 9 8 8 8 8 9 10 9 10 9 9 8 8 8 8 8 8 8 6 5 6 5 4 7 6 6 3 4 5 4 4 5 5 3
6 2 2 4 2 1 2 3 5 10 10 10 9 8 8 8 7 8 8 8 8 8 9 9 9 10 9 8 8 7 8 5 5 5 5 4 4 5 7 7 7 7 7 5 4 3 4 4 4
2 2 3 5 6 2 5 5 5 9 8 8 8 8 7 7 7 8 8 7 8 8 9 9 9 9 9 8 7 8 8 7 6 7 5 4 5 5 7 7 7 7 7 7 6 3 4 4 5
3 2 1 2 3 4 4 6 3 10 9 8 8 8 7 7 7 7 7 7 7 7 7 8 8 9 9 9 7 7 8 8 7 7 7 7 6 7 7 7 7 7 7 7 7 5 5 5 5
1 2 4 1 2 2 3 2 6 9 10 9 8 8 7 7 6 6 6 7 7 7 8 7 8 8 8 8 8 8 7 8 8 7 7 7 7 7 7 7 7 7 7 8 7 8 8 7 6
1 4 2 1 5 4 3 2 7 4 10 9 10 8 7 6 5 5 7 7 7 7 7 7 7 7 7 7 7 7 8 8 9 9 9 8 7 7 7 7 7 6 7 7 7 9 10 10 9
Wind_Direction
299 262 223 342 333 218 258 61 89 61 81 58 35 52 92 42 18 90 147 121 127 130 121 128 117 107 107 89 103 89 73 78 70 62 66 63 62 65 65 67 60 61 68 66 65 64 64 63 63
299 295 304 270 248 218 106 128 72 68 63 178 53 48 72 80 67 116 116 124 137 111 119 126 113 104 95 95 99 90 82 77 65 66 64 58 65 66 58 70 64 63 67 66 65 64 65 65 65
257 273 291 218 230 350 92 88 96 92 43 355 116 52 43 50 120 118 124 141 100 120 123 127 119 115 97 111 94 92 86 85 78 68 68 64 68 62 60 63 63 64 66 64 67 66 65 65 67
306 263 272 283 251 43 70 78 103 116 106 7 46 84 85 1 43 115 157 138 129 115 114 110 130 119 113 105 101 100 97 80 80 80 66 65 69 67 59 61 66 65 66 66 66 67 67 70 69
259 268 258 233 52 58 65 51 164 96 73 28 88 68 83 45 90 118 141 129 117 123 117 133 135 144 110 108 94 93 87 89 82 73 76 68 71 70 70 72 64 65 64 65 64 67 64 61 70
274 242 264 126 101 69 80 104 15 79 91 13 97 101 73 121 111 136 148 132 124 137 124 127 141 129 138 122 113 108 92 94 86 84 75 65 65 65 63 61 63 61 61 64 64 63 66 65 65
266 243 335 88 114 76 59 314 8 61 59 24 359 73 122 117 134 140 152 140 131 124 117 127 123 128 129 120 125 108 113 98 70 72 75 75 70 70 71 68 63 61 65 65 59 60 60 58 55
290 275 111 83 160 73 40 51 18 40 53 148 14 77 137 133 138 147 130 131 122 118 129 137 133 150 127 124 131 123 110 89 101 88 88 111 116 98 87 80 63 61 59 59 65 64 60 61 63
280 281 88 12 71 85 167 109 59 265 93 60 60 70 107 128 136 126 129 130 120 103 177 148 137 156 125 130 127 132 122 104 119 138 193 206 213 172 102 79 52 56 60 59 64 61 66 83 119
250 58 60 35 36 82 49 50 91 187 70 51 84 89 109 133 143 145 150 155 150 160 193 134 136 142 142 131 142 152 138 186 180 173 194 211 131 81 106 128 150 131 117 148 128 213 242 229 213
347 99 125 58 15 347 96 69 43 27 49 27 2 126 137 161 165 164 175 165 170 170 161 143 158 158 167 136 155 151 180 220 184 117 59 45 60 148 177 186 183 201 220 221 217 234 247 242 108
123 46 18 106 42 356 33 70 70 51 14 31 16 19 143 176 179 186 175 165 160 163 163 168 147 150 173 147 167 180 186 175 219 147 106 49 258 331 118 87 112 160 198 342 270 327 317 279 226
89 100 83 95 112 62 32 40 88 39 10 48 38 33 19 177 189 183 166 155 156 159 160 173 148 160 178 148 193 154 177 163 185 132 144 177 142 340 258 226 162 142 97 269 324 292 316 295 301
58 51 100 120 120 121 88 45 55 0 12 47 58 41 35 12 1 51 110 142 156 161 159 165 161 176 204 165 155 171 142 159 187 137 169 177 189 191 237 241 135 277 170 316 322 330 334 311 310
171 155 134 139 151 120 119 58 45 342 46 49 58 51 57 29 15 22 6 341 172 171 155 162 166 164 191 187 150 104 80 91 151 155 184 197 195 203 232 293 165 220 90 61 302 293 291 321 299
215 256 169 130 160 199 319 100 52 9 61 52 55 49 48 45 24 19 355 344 333 254 151 157 159 154 177 169 149 136 204 126 289 202 189 193 199 181 321 332 313 188 92 8 334 314 331 302 281
220 245 160 143 336 144 193 125 69 19 53 56 51 41 37 43 27 19 1 340 322 312 200 149 147 164 161 191 166 163 200 159 206 237 180 192 181 195 187 269 260 227 137 208 242 305 210 291 313
263 218 85 113 83 94 73 100 76 49 51 53 49 40 31 38 28 17 1 342 313 291 295 142 143 161 162 163 178 163 172 186 204 204 201 191 174 188 204 265 282 326 127 262 282 240 299 225 276
338 8 35 93 31 39 106 102 91 71 53 57 52 40 31 33 27 21 6 354 334 226 270 136 136 160 148 137 162 164 184 191 197 204 221 205 197 181 182 221 263 224 184 241 238 218 254 302 262
331 305 107 80 151 230 139 122 102 94 77 64 61 49 42 29 31 30 18 7 6 8 40 31 123 143 149 148 174 161 175 203 185 189 193 209 205 206 185 195 223 245 202 232 250 245 279 291 254
225 330 17 66 168 261 155 154 143 119 106 82 60 62 44 48 40 34 30 21 15 16 10 15 35 91 93 77 61 41 38 19 11 334 234 225 213 213 208 218 213 228 206 208 233 213 195 228 310
335 4 352 95 194 255 167 213 163 142 108 78 69 56 57 41 48 44 39 39 27 17 20 24 32 27 25 49 23 118 176 222 229 209 219 234 220 222 219 215 223 242 240 212 217 224 201 170 240
99 332 343 313 286 310 196 255 117 140 127 100 79 72 60 56 50 50 44 40 35 26 25 34 36 34 25 27 25 25 20 9 356 22 16 346 321 240 257 231 226 231 233 239 219 228 218 200 199
59 259 219 257 233 252 223 174 174 190 141 120 99 78 73 62 52 50 49 40 34 23 32 34 48 42 33 32 27 35 35 17 24 9 2 350 342 333 309 264 276 284 280 247 238 237 236 229 219
224 274 239 251 199 244 9 130 119 103 110 116 110 92 79 69 59 52 50 48 35 27 29 42 34 36 42 39 35 34 36 42 41 20 16 15 4 5 358 359 348 314 270 263 266 261 243 235 222
222 347 299 295 36 142 273 189 143 96 89 93 97 100 83 71 71 57 51 45 50 40 33 31 35 32 27 25 26 27 37 38 34 27 26 17 17 352 0 351 345 334 327 319 286 246 247 246 249
81 201 346 311 279 248 144 88 84 122 125 131 117 97 86 84 69 67 56 51 48 42 41 35 32 27 20 19 24 18 18 28 33 24 20 14 5 359 359 357 350 349 343 330 321 309 286 270 254
246 341 306 236 268 260 199 121 116 167 157 141 132 114 101 86 76 74 66 58 45 39 39 36 35 31 14 9 19 24 14 11 16 24 16 10 0 4 6 358 356 359 356 352 346 322 300 287 276
223 225 235 241 259 254 322 84 351 176 161 154 128 112 105 90 82 72 67 64 61 46 36 35 32 26 16 3 3 18 14 10 7 11 4 2 360 357 5 1 0 4 358 346 5 359 357 346 326
308 341 327 219 329 324 159 220 331 109 136 139 119 112 100 98 101 88 79 65 48 42 35 28 28 23 14 356 2 9 15 10 6 1 356 354 354 350 351 359 358 4 354 354 24 8 356 353 344